星链-35420(STARLINK-35420)

导读 | 豆包AI

STARLINK-35420是美国SpaceX星链星座的一员,于2025年10月29日发射升空,归属低轨卫星互联网星座组网。星链系统通过大规模部署低轨卫星,为全球提供高速宽带互联网服务,尤其覆盖偏远地区。该卫星延续星链设计,承担通信中继任务,推进星座全球覆盖能力建设。

基本信息
目录编号:
66260
目录名称:
STARLINK-35420
国际标识:
2025-245AC
轨道中心:
EARTH
卫星名称:
星链-35420
卫星全名:
星链-35420(STARLINK-35420)
卫星状态:
在轨 (已飞行208 天)
发射日期:
2025-10-29 UTC
国别 :
美国 (US)
星等 :
--
轨道信息
数据来源 国际轨道数据 AOE轨道数据
星历时间 2026-05-25T11:13:20+0800
10小时前
查看轨道信息
2026-05-25T08:00:00+0800
13小时前
查看轨道信息
半长轴 6848.824km 6848.754km
偏心率 0.0000982 0.0001066
轨道倾角 53.160° 53.158°
近地点辐角 102.662° 56.735°
升交点赤经 288.588° 289.213°
平近点角 257.449° 282.675°
近地点 470.014km 469.886km
远地点 471.36km 471.348km
周期 94.012分钟 94.011分钟
每日圈数 15.317181 15.317413
详细信息
固有亮度:
5
最大亮度:
2.5
卫星平台:
Starlink V1.0
覆盖范围:
全球
运营商:
太空探索技术公司
运营商所在国:
美国
制造商(研发单位):
太空探索技术公司
制造商所在国:
美国
使用方式:
暂无
卫星简介
Starlink 计划是 SpaceX 推出的全球卫星互联网项目,通过发射低轨道卫星,为全球尤其是偏远地区提供高速、低延迟的互联网服务。自 2019 年起,Starlink 已部署数千颗卫星,旨在缩小全球数字鸿沟,推动互联网普及。该项目还为军事、航空等行业提供通信支持,带来广泛经济效益。
2D轨道图
3D轨道图
轨道高度分析图
轨道倾角分析图
轨道综合分析图
查看轨道综合分析图